Terminal Aerodrome Forecast
Issued by NWS Blacksburg, VA

Current Version | Previous Version | Graphics & Text | Print | Product List | Glossary On
Versions: 1 2 3 4 5 6 7 8 9 10 11 12 13 14 15 16 17 18 19 20 21 22 23 24 25 26 27 28 29 30 31 32 33 34 35 36 37 38 39 40
000
FTUS41 KRNK 271733
TAFBLF
TAF
KBLF 271733Z 2718/2818 31011G17KT P6SM OVC011
     FM280100 30011KT P6SM OVC050
     FM280500 29007KT P6SM -SHSN OVC025
     FM281200 30007KT P6SM BKN050=

USA.gov is the U.S. government's official web portal to all federal, state and local government web resources and services.